Location: Aranbee
(34.0885°N, 118.2342°W)
Time: 00:03:34
(UTC+00:00)

A-11 Canister half - Pass Details

Date: 29 July 2021
Orbit: 1515 x 1685 km, 47.2° (Epoch: 22 September)

Event Time Altitude Azimuth Distance (km) Brightness Sun altitude
Rises 08:28:10 0° 304° (NW) 4,936 11.9 -36.8°
Reaches altitude 10° 08:31:21 10° 303° (WNW) 3,950 11.3 -36.7°
Enters shadow 08:39:36 59° 270° (W) 1,897 9.2 -36.4°
